Location: Amsterdam
(30.7274°N, 84.4357°W)
Time: 21:12:12
(UTC+00:00)

Tiros 1 despin weight - Pass Details

Date: 24 February 2026
Orbit: 556 x 593 km, 48.2° (Epoch: 3 March)

Event Time Altitude Azimuth Distance (km) Brightness Sun altitude
Rises 23:50:14 0° 317° (NW) 2,731 ? -4.5°
Reaches altitude 10° 23:52:36 10° 326° (NW) 1,834 ? -5.0°
Maximum altitude 23:56:31 38° 35° (NE) 858 ? -5.9°
Drops below altitude 10° 00:00:26 10° 104° (ESE) 1,834 ? -6.7°
Enters shadow 00:01:18 - 108° (ESE) 2,153 ? -6.9°
Sets 00:02:48 0° 113° (ESE) 2,731 - -7.2°
